User: anonymous   Login
Location: ??????????
(54.7560°N, 39.1389°E)
Time: 11:52:26
(UTC+00:00)
Language:

Cosmos 2227 Rocket - Orbit

View from above orbital plane
View from above orbital plane
View from above satellite
View from above satellite

Ground track
Ground track

The orbit data is extracted from the following two-line orbital elements,

1 22285U 92093B   25196.91972005 -.00000234  00000-0 -95393-4 0  9992
2 22285  71.0217 141.2918 0006360 295.6359  64.4107 14.15401397679659
Epoch (UTC): 15 July 2025 22:04:23
Eccentricity: 0.0006360
inclination: 71.0217°
perigee height: 836 km
apogee height: 845 km
right ascension of ascending node: 141.2918°
argument of perigee: 295.6359°
revolutions per day: 14.15401397
mean anomaly at epoch: 64.4107°
orbit number at epoch: 67965

The dashed part of the orbit path shows where the satellite is in the earth's shadow,  

DLR